User: anonymous   Login
Location: Unspecified
(0.0000°N, 0.0000°E)
Time: 17:05:17
(UTC+00:00)
Language:

Oscar 14 - Orbit

View from above orbital plane
View from above orbital plane
View from above satellite
View from above satellite

Ground track
Ground track

The orbit data is extracted from the following two-line orbital elements,

1 20437U 90005B   17264.86504146 -.00000011  00000-0  12682-4 0  9990
2 20437  98.6674 208.6363 0009525 251.5179 173.4699 14.32266080445045
Epoch (UTC): 21 September 2017 20:45:39
Eccentricity: 0.0009525
inclination: 98.6674°
perigee height: 777 km
apogee height: 791 km
right ascension of ascending node: 208.6363°
argument of perigee: 251.5179°
revolutions per day: 14.32266080
mean anomaly at epoch: 173.4699°
orbit number at epoch: 44504

The dashed part of the orbit path shows where the satellite is in the earth's shadow,  

DLR